Starlink 35925

operational
NORAD ID: 66887 Int'l Des: 2025-283 Owner: SPXS Country: US Constellation: starlink
LEOCIRCULAR

About Starlink 35925

Description loading...

Live Position

Loading 3D Globe...

Upcoming Passes

Altitude History

Altitude vs Time

uPlot chart will show altitude changes over time

Two-Line Element Set

1 66887U 25283K 26047.46749556 .00033900 00000-0 11513-2 0 9998
2 66887 53.1617 122.8294 0001840 99.6139 260.5069 15.30206240 12596
Epoch: Feb 16, 2026 • Age: 6 hours

Current Status

Altitude 487.5 km
Velocity 7.62 km/s
Sub-Earth Point -35.52°S, 43.49°E
Launch Date Dec 4, 2025
Age 0.1 years
Type internet

Technical Details

Classification Payload
Mass 575.00 kg
Dry Mass 530.00 kg
Total Mass 575.00 kg
Length 0.30 m
Diameter 4.10 m
Span 29.00 m
Shape Box + pan
Manufacturer SPXS
Bus Type Starlink V2MO
Phase Status In Orbit
Owner/State SPXS/US

Large Constellations

Loading constellations...